Voltar ao catálogo

FENGYUN 1C DEB

AtivoSSO
NORAD 31361·DEBRIS·🇨🇳 China

Lançado May 10, 1999 de Taiyuan Satellite Launch Center

Loading…

Próximas Passagens (próximas 24 horas)

TLE

AtualizadoSource: Space-Track

Época: Sep 12, 2026, 08:54 UTC

1 31361U 99025BRR 26255.37128985  .00000115  00000-0  76324-4 0  9995
2 31361  98.5843 226.0989 0045213   3.0842 357.0604 14.17877738  4227

Acompanhe FENGYUN 1C DEB em tempo real com AllMySat

Download on the App Store